Watsonville, CA

12:51 PM PST on January 18, 2018 (GMT -0800)
Watsonville Municipal

Weather History for KWVI - May, 2013

Change the Weather History Date:

Thursday, May 16, 2013

  Actual Average Record
Temperature  
Mean Temperature 58 °F 59 °F  
Max Temperature 67 °F 70 °F 97 °F (2008)
Min Temperature 49 °F 48 °F 44 °F (2003)
Degree Days  
Heating Degree Days 7    
Month to date heating degree days 77  
Since 1 July heating degree days 2829  
Cooling Degree Days 0    
Month to date cooling degree days 6  
Year to date cooling degree days 6  
Growing Degree Days 8 (Base 50)    
Moisture  
Dew Point 50 °F    
Average Humidity 74    
Maximum Humidity 89    
Minimum Humidity 58    
Precipitation  
Precipitation T in - 0.32 in (2011)
Month to date precipitation T  
Year to date precipitation 2.34  
Since 1 July precipitation 13.28  
Sea Level Pressure  
Sea Level Pressure 30.05 in    
Wind  
Wind Speed 3 mph (SSE)    
Max Wind Speed 15 mph    
Max Gust Speed 20 mph    
Visibility 10 miles    
Events Rain    
T = Trace of Precipitation, MM = Missing Value Source: NWS Daily Summary

Daily Weather History Graph

Daily Weather History Graph

Search for Another Location

Airport or City:

Trip Planner

Search our weather history database for the weather conditions in past years. The results will help you decide how hot, cold, wet, or windy it might be!

Date:

Astronomy

May. 16, 2013 Rise Set
Actual Time 5:58 AM PDT 8:09 PM PDT
Civil Twilight 5:29 AM PDT 8:38 PM PDT
Nautical Twilight 4:53 AM PDT 9:14 PM PDT
Astronomical Twilight 4:14 AM PDT 9:53 PM PDT
Moon 11:33 AM PDT (5/16) 12:35 AM PDT (5/16)
Length of Visible Light 15h 09m
Length of Day
14h 11m
Waxing Crescent, 36% of the Moon is Illuminated
May 16
Waxing Crescent
May 17
First Quarter
May 24
Full
May 31
Last Quarter
Jun 8
New

Hourly Weather History & Observations

Time (PDT) Temp. Dew Point Humidity Pressure Visibility Wind Dir Wind Speed Gust Speed Precip Events Conditions
12:53 AM 52.0 °F 48.0 °F 86% 30.07 in 10.0 mi Calm Calm - N/A   Clear
1:23 AM 51.8 °F 46.4 °F 82% 30.07 in 10.0 mi Calm Calm - N/A   Scattered Clouds
1:31 AM 51.8 °F 46.4 °F 82% 30.07 in 10.0 mi Calm Calm - N/A   Mostly Cloudy
1:53 AM 52.0 °F 46.9 °F 83% 30.07 in 10.0 mi Calm Calm - N/A   Overcast
2:53 AM 53.1 °F 48.9 °F 86% 30.06 in 10.0 mi Calm Calm - N/A   Overcast
3:09 AM 53.6 °F 48.2 °F 82% 30.05 in 10.0 mi Calm Calm - N/A   Overcast
3:44 AM 53.6 °F 48.2 °F 82% 30.05 in 10.0 mi Calm Calm - N/A   Overcast
3:53 AM 53.1 °F 48.9 °F 86% 30.05 in 10.0 mi Calm Calm - N/A   Overcast
4:53 AM 52.0 °F 48.9 °F 89% 30.04 in 10.0 mi Calm Calm - N/A   Mostly Cloudy
5:01 AM 51.8 °F 48.2 °F 88% 30.05 in 10.0 mi Calm Calm - N/A   Mostly Cloudy
5:53 AM 53.1 °F 48.9 °F 86% 30.04 in 10.0 mi Calm Calm - N/A   Overcast
6:05 AM 53.6 °F 48.2 °F 82% 30.04 in 10.0 mi NE 3.5 mph - N/A   Overcast
6:17 AM 53.6 °F 50.0 °F 88% 30.04 in 9.0 mi Calm Calm - N/A   Overcast
6:51 AM 53.6 °F 50.0 °F 88% 30.05 in 8.0 mi Calm Calm - N/A   Overcast
6:53 AM 53.1 °F 50.0 °F 89% 30.05 in 8.0 mi Calm Calm - N/A   Overcast
7:17 AM 53.6 °F 50.0 °F 88% 30.06 in 9.0 mi Calm Calm - N/A   Mostly Cloudy
7:24 AM 53.6 °F 50.0 °F 88% 30.06 in 9.0 mi Calm Calm - N/A   Scattered Clouds
7:53 AM 54.0 °F 50.0 °F 86% 30.07 in 10.0 mi Calm Calm - 0.00 in Rain Light Rain
8:21 AM 53.6 °F 50.0 °F 88% 30.07 in 9.0 mi Calm Calm - 0.00 in Rain Light Rain
8:30 AM 55.4 °F 51.8 °F 88% 30.08 in 9.0 mi Calm Calm - 0.00 in Rain Light Rain
8:53 AM 55.0 °F 51.1 °F 86% 30.07 in 10.0 mi Calm Calm - 0.00 in Rain Light Rain
9:11 AM 55.4 °F 51.8 °F 88% 30.07 in 10.0 mi Calm Calm - 0.00 in   Overcast
9:53 AM 57.9 °F 52.0 °F 81% 30.08 in 10.0 mi SSE 3.5 mph - 0.00 in   Mostly Cloudy
10:45 AM 60.8 °F 51.8 °F 72% 30.06 in 10.0 mi East 3.5 mph - N/A   Partly Cloudy
10:53 AM 61.0 °F 51.1 °F 70% 30.06 in 10.0 mi Calm Calm - N/A   Partly Cloudy
11:17 AM 62.6 °F 51.8 °F 68% 30.06 in 10.0 mi Calm Calm - N/A   Overcast
11:42 AM 64.4 °F 51.8 °F 64% 30.06 in 10.0 mi Variable 3.5 mph - N/A   Scattered Clouds
11:53 AM 66.0 °F 52.0 °F 60% 30.06 in 10.0 mi Calm Calm - N/A   Partly Cloudy
12:11 PM 64.4 °F 53.6 °F 68% 30.06 in 10.0 mi Variable 6.9 mph - N/A   Mostly Cloudy
12:22 PM 66.2 °F 51.8 °F 60% 30.06 in 10.0 mi South 9.2 mph - N/A   Overcast
12:53 PM 66.0 °F 52.0 °F 60% 30.05 in 10.0 mi SSW 8.1 mph - N/A   Mostly Cloudy
1:53 PM 66.9 °F 53.1 °F 61% 30.04 in 10.0 mi SW 11.5 mph - N/A   Scattered Clouds
2:51 PM 62.6 °F 53.6 °F 72% 30.04 in 10.0 mi SW 12.7 mph - N/A   Mostly Cloudy
2:53 PM 62.1 °F 53.1 °F 72% 30.04 in 10.0 mi SW 9.2 mph - N/A   Mostly Cloudy
3:04 PM 60.8 °F 53.6 °F 77% 30.04 in 10.0 mi SW 12.7 mph - N/A   Mostly Cloudy
3:53 PM 59.0 °F 53.1 °F 81% 30.03 in 10.0 mi SW 6.9 mph - N/A   Overcast
4:53 PM 57.9 °F 52.0 °F 81% 30.02 in 10.0 mi SSE 9.2 mph - N/A   Overcast
5:09 PM 57.2 °F 51.8 °F 82% 30.02 in 10.0 mi SSE 9.2 mph - N/A   Overcast
5:53 PM 55.9 °F 52.0 °F 87% 30.02 in 10.0 mi SE 6.9 mph - N/A   Overcast
6:53 PM 55.9 °F 52.0 °F 87% 30.01 in 10.0 mi ENE 5.8 mph - N/A   Overcast
7:53 PM 55.9 °F 51.1 °F 84% 30.01 in 10.0 mi East 4.6 mph - N/A   Overcast
8:46 PM 55.4 °F 51.8 °F 88% 30.01 in 10.0 mi East 3.5 mph - N/A   Mostly Cloudy
8:53 PM 54.0 °F 50.0 °F 86% 30.02 in 10.0 mi Calm Calm - N/A   Scattered Clouds
9:53 PM 53.1 °F 48.9 °F 86% 30.04 in 10.0 mi East 3.5 mph - N/A   Partly Cloudy
10:53 PM 54.0 °F 48.9 °F 83% 30.04 in 10.0 mi Calm Calm - N/A   Mostly Cloudy
11:53 PM 51.1 °F 48.0 °F 89% 30.04 in 10.0 mi Calm Calm - N/A   Mostly Cloudy